This is the latest recevied weather packets stored in our database for station/object IZ1UQG-N2. If no packets are shown the sender has not sent any weather packets the latest 10 day(s).
| Time | Temp. | Humidity | Pressure | Rain* | Wind** | Luminosity | Snow |
|---|---|---|---|---|---|---|---|
| 1787763080 | 26.67° C | 69% | 1013.9 hPa | 0 mm | - | 105 W/m² | - |
| 1787763021 | 26.67° C | 69% | 1013.9 hPa | 0 mm | - | 102 W/m² | - |
| 1787762960 | 26.67° C | 68% | 1013.7 hPa | 0 mm | - | 98 W/m² | - |
| 1787762900 | 26.67° C | 68% | 1013.7 hPa | 0 mm | - | 91 W/m² | - |
| 1787762841 | 26.67° C | 68% | 1013.7 hPa | 0 mm | - | 84 W/m² | - |
| 1787762781 | 26.67° C | 68% | 1013.7 hPa | 0 mm | - | 83 W/m² | - |
| 1787762720 | 26.67° C | 68% | 1013.7 hPa | 0 mm | - | 83 W/m² | - |
| 1787762661 | 26.67° C | 67% | 1013.6 hPa | 0 mm | - | 83 W/m² | - |
| 1787762600 | 26.67° C | 67% | 1013.6 hPa | 0 mm | - | 84 W/m² | - |
| 1787762541 | 26.67° C | 67% | 1013.6 hPa | 0 mm | - | 84 W/m² | - |
| 1787762479 | 26.67° C | 67% | 1013.6 hPa | 0 mm | - | 90 W/m² | - |
| 1787762419 | 26.67° C | 68% | 1013.6 hPa | 0 mm | - | 91 W/m² | - |
| 1787762359 | 26.67° C | 68% | 1013.6 hPa | 0 mm | - | 91 W/m² | - |
| 1787762299 | 26.67° C | 68% | 1013.6 hPa | 0 mm | - | 90 W/m² | - |
| 1787762240 | 26.67° C | 68% | 1013.6 hPa | 0 mm | - | 88 W/m² | - |
| 1787762181 | 26.67° C | 68% | 1013.7 hPa | 0 mm | - | 86 W/m² | - |
| 1787762121 | 26.67° C | 68% | 1013.8 hPa | 0 mm | - | 81 W/m² | - |
| 1787762061 | 26.67° C | 68% | 1013.8 hPa | 0 mm | - | 76 W/m² | - |
| 1787762000 | 26.67° C | 68% | 1013.8 hPa | 0 mm | - | 70 W/m² | - |
| 1787761939 | 26.67° C | 68% | 1013.8 hPa | 0 mm | - | 67 W/m² | - |
| 1787761881 | 26.67° C | 67% | 1013.8 hPa | 0 mm | - | 65 W/m² | - |
| 1787761821 | 27.22° C | 68% | 1013.7 hPa | 0 mm | - | 67 W/m² | - |
| 1787761759 | 27.22° C | 68% | 1013.6 hPa | 0 mm | - | 69 W/m² | - |
| 1787761700 | 26.67° C | 68% | 1013.7 hPa | 0 mm | - | 70 W/m² | - |
| 1787761640 | 26.67° C | 68% | 1013.7 hPa | 0 mm | - | 70 W/m² | - |
* Rain latest hour (hover to see other rain measurements)
** Current wind speed in m/s (hover to see current wind gust speed)